Miscellaneous Local Product
Issued by NWS Hastings, NE

Home | Current Version | Previous Version | Text Only | Print | Product List | Glossary On
Versions: 1 2 3 4 5 6 7 8 9 10 11 12 13 14 15 16 17 18 19 20 21 22 23 24 25 26 27 28 29 30 31 32 33 34 35 36 37 38 39 40 41 42 43 44 45 46 47 48 49 50
000
AXUS43 KGID 312202
MISGRI

GID CWA HOURLY WEATHER ROUNDUP
NATIONAL WEATHER SERVICE HASTINGS NE
500 PM CDT FRI JUL 31 2015

NOTE: "FAIR" INDICATES FEW OR NO CLOUDS BELOW 12,000 FEET WITH NO
SIGNIFICANT WEATHER AND/OR OBSTRUCTIONS TO VISIBILITY.

...SOUTH CENTRAL NEBRASKA...

CITY           SKY/WX    TMP DP  RH WIND       PRES   REMARKS
GRAND ISLAND   PTSUNNY   76  63  64 E13       30.11R
HASTINGS       SUNNY     91  65  41 S7        30.08F HX  93
KEARNEY        SUNNY     90  68  48 S15       30.09F HX  93
ORD            TSTM      76  63  64 E5        30.06F
YORK           MOSUNNY   90  70  51 S8        30.08F HX  95
AURORA         MOSUNNY   76  67  72 N8        30.09S
LEXINGTON      SUNNY     94  62  34 SW8       30.11F HX  94
HOLDREGE       SUNNY     92  58  32 SW7       30.11F HX  91
HEBRON         SUNNY     91  62  38 S7        30.08F HX  91

...NEBRASKA PANHANDLE...

CITY           SKY/WX    TMP DP  RH WIND       PRES   REMARKS
CHADRON        MOSUNNY   94  52  24 VRB5      30.11F HX  91
ALLIANCE       MOSUNNY   81  62  52 E14       30.18F
SCOTTSBLUFF    MOSUNNY   89  51  27 SW20G26   30.17F
SIDNEY         MOSUNNY   91  45  20 SE13      30.20F

...WESTERN AND NORTH CENTRAL NEBRASKA...

CITY           SKY/WX    TMP DP  RH WIND       PRES   REMARKS
VALENTINE      SUNNY     95  42  16 N8        30.10F HX  91
AINSWORTH      MOSUNNY   89  60  36 SE6       30.11F
ONEILL         SUNNY     90  59  34 N5        30.09F
BROKEN BOW     MOSUNNY   93  61  34 W10       30.10F HX  93
IMPERIAL       SUNNY     94  47  20 NE7       30.14F HX  90
NORTH PLATTE   MOSUNNY   92  56  29 S5        30.12F HX  90
MCCOOK         SUNNY     95  56  26 S7        30.10F HX  93

...EASTERN NEBRASKA...

CITY           SKY/WX    TMP DP  RH WIND       PRES   REMARKS
NORFOLK        MOSUNNY   83  66  56 S14       30.07F
SO SIOUX CITY  PTSUNNY   87  70  56 E7        30.05F HX  92
TEKAMAH        MOSUNNY   89  75  63 CALM      30.04F HX  99
COLUMBUS       CLOUDY    77  66  69 NW6       30.09R
ALBION         LGT RAIN  67  63  85 SE10      30.09S
OMAHA EPPLEY   PTSUNNY   87  75  67 NW5       30.03F HX  96
OFFUTT AFB     CLOUDY    86  73  64 SW2       30.03F HX  94
MILLARD        CLOUDY    88  73  61 CALM      30.05F HX  95
LINCOLN        MOSUNNY   90  69  50 W7        30.05F HX  94
NEBRASKA CITY  MOSUNNY   89  66  46 W6        30.07F HX  91
BEATRICE       SUNNY     89  71  53 SW6       30.07F HX  95
FALLS CITY     MOSUNNY   89  74  60 E3        30.06F HX  98

...NORTHERN KANSAS...

CITY           SKY/WX    TMP DP  RH WIND       PRES   REMARKS
GOODLAND       MOSUNNY   89  58  34 S12       30.17F
HILL CITY      SUNNY     93  59  31 VRB5      30.10F HX  92
NORTON         CLEAR     93  55  27 S7        30.10F HX  91
PHILLIPSBURG   SUNNY     95  63  34 SW5       30.09F HX  96
SMITH CENTER   SUNNY     91  61  35 S10       30.08F HX  91
HAYS           SUNNY     91  63  38 S8        30.09F HX  92
RUSSELL        SUNNY     93  61  34 S6        30.08F HX  93
CONCORDIA      SUNNY     91  64  40 S9        30.07F HX  92
SALINA         SUNNY     92  68  45 S8        30.07F HX  96
TOPEKA         SUNNY     89  66  46 SE3       30.07F HX  91



USA.gov is the U.S. government's official web portal to all federal, state and local government web resources and services.